| time (UTC) | temp F | wind direction | speed knots | gust knots | rain 1hr in | rain 24hr in | rain mn in | humidity % | barometer mb |
| 20260507081608 | 50 | 102 | 0.0 | 5.2 | 0.00 | 0.35 | 0.00 | 79 | 1029.4 |
| 20260507081107 | 50 | 209 | 1.7 | 5.2 | 0.00 | 0.35 | 0.00 | 78 | 1029.5 |
| 20260507080608 | 50 | 119 | 0.9 | 5.2 | 0.00 | 0.35 | 0.00 | 78 | 1029.6 |
| 20260507075612 | 50 | 130 | 0.9 | 6.1 | 0.00 | 0.35 | 0.00 | 79 | 1029.7 |
| 20260507075110 | 50 | 142 | 1.7 | 6.1 | 0.00 | 0.35 | 0.00 | 78 | 1029.5 |
| 20260507074612 | 51 | 142 | 0.9 | 5.2 | 0.00 | 0.35 | 0.00 | 79 | 1029.3 |
| 20260507074113 | 51 | 106 | 0.9 | 7.0 | 0.00 | 0.35 | 0.00 | 79 | 1029.4 |
| 20260507073612 | 51 | 118 | 1.7 | 7.0 | 0.00 | 0.35 | 0.00 | 79 | 1029.3 |
| 20260507073116 | 51 | 117 | 0.0 | 4.3 | 0.00 | 0.35 | 0.00 | 79 | 1029.2 |
| 20260507072616 | 51 | 158 | 0.9 | 4.3 | 0.00 | 0.35 | 0.00 | 79 | 1029.3 |
| 20260507072117 | 51 | 180 | 0.9 | 5.2 | 0.00 | 0.35 | 0.00 | 79 | 1029.3 |
| 20260507071600 | 51 | 132 | 0.0 | 5.2 | 0.00 | 0.35 | 0.00 | 79 | 1029.3 |
| 20260507071100 | 51 | 188 | 0.9 | 4.3 | 0.00 | 0.35 | 0.00 | 79 | 1029.4 |
| 20260507070601 | 51 | 98 | 0.0 | 4.3 | 0.00 | 0.35 | 0.00 | 79 | 1029.0 |
| 20260507070104 | 51 | 226 | 0.9 | 4.3 | 0.00 | 0.35 | 0.00 | 79 | 1029.0 |
| 20260507065617 | 51 | 125 | 0.0 | 4.3 | 0.00 | 0.35 | 0.00 | 79 | 1029.1 |
| 20260507065118 | 51 | 139 | 0.0 | 7.0 | 0.00 | 0.35 | 0.00 | 79 | 1029.1 |
| 20260507064600 | 51 | 158 | 0.9 | 7.0 | 0.00 | 0.35 | 0.00 | 79 | 1029.1 |
| 20260507064100 | 51 | 124 | 1.7 | 5.2 | 0.00 | 0.35 | 0.00 | 79 | 1028.8 |
| 20260507063601 | 51 | 138 | 0.0 | 4.3 | 0.00 | 0.35 | 0.00 | 79 | 1028.9 |
| 20260507063105 | 51 | 60 | 0.0 | 4.3 | 0.00 | 0.35 | 0.00 | 79 | 1028.8 |
| 20260507062600 | 51 | 120 | 0.9 | 6.1 | 0.00 | 0.35 | 0.00 | 79 | 1028.8 |
| 20260507062101 | 51 | 116 | 1.7 | 6.1 | 0.00 | 0.35 | 0.00 | 79 | 1028.7 |
| 20260507061603 | 52 | 108 | 0.9 | 5.2 | 0.00 | 0.35 | 0.00 | 79 | 1028.8 |
| 20260507061103 | 52 | 156 | 0.0 | 3.5 | 0.00 | 0.35 | 0.00 | 79 | 1028.8 |
| 20260507060604 | 52 | 147 | 0.0 | 3.5 | 0.00 | 0.35 | 0.00 | 79 | 1028.9 |
| 20260507060106 | 52 | 192 | 1.7 | 3.5 | 0.00 | 0.35 | 0.00 | 79 | 1028.9 |
| 20260507055624 | 52 | 351 | 0.0 | 2.6 | 0.00 | 0.35 | 0.00 | 79 | 1029.2 |
| 20260507055104 | 52 | 122 | 0.0 | 2.6 | 0.00 | 0.35 | 0.00 | 79 | 1029.2 |
| 20260507054626 | 52 | 145 | 0.9 | 2.6 | 0.00 | 0.35 | 0.00 | 79 | 1029.2 |
| 20260507054105 | 53 | 80 | 0.0 | 1.7 | 0.00 | 0.35 | 0.00 | 78 | 1029.1 |
| 20260507053620 | 53 | 138 | 0.0 | 3.5 | 0.00 | 0.35 | 0.00 | 78 | 1029.1 |
| 20260507053101 | 53 | 125 | 0.0 | 3.5 | 0.00 | 0.35 | 0.00 | 78 | 1029.2 |
| 20260507052620 | 53 | 106 | 0.0 | 1.7 | 0.00 | 0.35 | 0.00 | 78 | 1029.2 |
| 20260507052100 | 53 | 143 | 0.0 | 3.5 | 0.00 | 0.35 | 0.00 | 78 | 1029.0 |
| 20260507051602 | 54 | 95 | 0.0 | 5.2 | 0.00 | 0.35 | 0.00 | 78 | 1028.9 |
| 20260507051101 | 54 | 117 | 0.0 | 5.2 | 0.00 | 0.35 | 0.00 | 78 | 1028.7 |
| 20260507050602 | 54 | 122 | 0.0 | 3.5 | 0.00 | 0.35 | 0.00 | 78 | 1028.9 |
| 20260507050125 | 54 | 104 | 0.9 | 3.5 | 0.00 | 0.35 | 0.00 | 78 | 1028.9 |
| 20260507045604 | 54 | 75 | 0.9 | 3.5 | 0.00 | 0.35 | 0.00 | 78 | 1028.8 |
| 20260507045118 | 55 | 132 | 0.0 | 3.5 | 0.00 | 0.35 | 0.00 | 78 | 1028.7 |
| 20260507044600 | 55 | 147 | 0.9 | 6.1 | 0.00 | 0.35 | 0.00 | 78 | 1028.7 |
| 20260507044121 | 55 | 162 | 1.7 | 6.1 | 0.00 | 0.35 | 0.00 | 78 | 1028.9 |
| 20260507043601 | 55 | 65 | 0.9 | 3.5 | 0.00 | 0.35 | 0.00 | 78 | 1028.9 |
| 20260507043102 | 56 | 116 | 0.9 | 4.3 | 0.00 | 0.35 | 0.00 | 77 | 1029.1 |
| 20260507042601 | 56 | 121 | 1.7 | 4.3 | 0.00 | 0.35 | 0.00 | 77 | 1029.1 |
| 20260507042100 | 56 | 131 | 0.0 | 2.6 | 0.00 | 0.35 | 0.00 | 76 | 1028.9 |
| 20260507041602 | 57 | 200 | 0.9 | 2.6 | 0.00 | 0.35 | 0.00 | 75 | 1028.8 |
| 20260507041102 | 57 | 121 | 0.9 | 5.2 | 0.01 | 0.35 | 0.00 | 75 | 1028.7 |
| 20260507040623 | 57 | 136 | 0.9 | 5.2 | 0.01 | 0.35 | 0.00 | 75 | 1028.6 |
| 20260507040145 | 57 | 120 | 0.0 | 3.5 | 0.01 | 0.35 | 0.00 | 75 | 1028.6 |
| 20260507035617 | 57 | 150 | 0.0 | 5.2 | 0.01 | 0.35 | 0.35 | 75 | 1028.4 |
| 20260507035114 | 58 | 111 | 0.9 | 7.0 | 0.01 | 0.35 | 0.35 | 75 | 1028.4 |
| 20260507034615 | 58 | 94 | 1.7 | 7.8 | 0.01 | 0.35 | 0.35 | 75 | 1028.2 |
| 20260507034114 | 58 | 119 | 1.7 | 7.8 | 0.01 | 0.35 | 0.35 | 74 | 1028.2 |
| 20260507033616 | 58 | 85 | 0.0 | 7.0 | 0.01 | 0.35 | 0.35 | 73 | 1028.1 |
| 20260507033138 | 59 | 125 | 2.6 | 8.7 | 0.01 | 0.35 | 0.35 | 73 | 1028.1 |
| 20260507032617 | 59 | 96 | 3.5 | 8.7 | 0.01 | 0.35 | 0.35 | 72 | 1028.1 |
| 20260507032117 | 59 | 144 | 0.9 | 7.0 | 0.01 | 0.35 | 0.35 | 72 | 1028.1 |
| 20260507031601 | 60 | 105 | 0.0 | 3.5 | 0.00 | 0.34 | 0.34 | 71 | 1028.1 |
| 20260507031101 | 60 | 131 | 0.9 | 2.6 | 0.00 | 0.34 | 0.34 | 71 | 1027.9 |
| 20260507030624 | 60 | 50 | 0.0 | 1.7 | 0.00 | 0.34 | 0.34 | 71 | 1027.7 |
| 20260507030105 | 60 | 131 | 0.0 | 2.6 | 0.00 | 0.34 | 0.34 | 71 | 1027.6 |
| 20260507025605 | 60 | 119 | 0.0 | 2.6 | 0.00 | 0.34 | 0.34 | 71 | 1027.7 |
| 20260507025106 | 60 | 119 | 0.0 | 1.7 | 0.00 | 0.34 | 0.34 | 71 | 1027.6 |
| 20260507024608 | 60 | 87 | 0.0 | 1.7 | 0.00 | 0.34 | 0.34 | 71 | 1027.6 |
| 20260507024107 | 60 | 67 | 0.0 | 4.3 | 0.00 | 0.34 | 0.34 | 71 | 1027.6 |
| 20260507023607 | 60 | 60 | 0.9 | 4.3 | 0.00 | 0.34 | 0.34 | 72 | 1027.5 |
| 20260507023111 | 60 | 12 | 0.9 | 7.0 | 0.00 | 0.34 | 0.34 | 72 | 1027.6 |
| 20260507022611 | 60 | 52 | 0.0 | 7.0 | 0.00 | 0.34 | 0.34 | 72 | 1027.7 |
| 20260507022131 | 60 | 62 | 0.9 | 6.1 | 0.00 | 0.34 | 0.34 | 72 | 1027.6 |
| 20260507021611 | 60 | 50 | 0.9 | 4.3 | 0.00 | 0.34 | 0.34 | 72 | 1027.6 |
| 20260507021111 | 60 | 87 | 0.9 | 5.2 | 0.00 | 0.34 | 0.34 | 72 | 1027.7 |
| 20260507020613 | 60 | 3 | 1.7 | 5.2 | 0.00 | 0.34 | 0.34 | 72 | 1027.7 |
| 20260507015617 | 60 | 81 | 0.9 | 5.2 | 0.00 | 0.34 | 0.34 | 72 | 1027.8 |
| 20260507015138 | 60 | 108 | 0.0 | 7.0 | 0.00 | 0.34 | 0.34 | 72 | 1027.9 |
| 20260507014559 | 60 | 85 | 2.6 | 7.0 | 0.00 | 0.34 | 0.34 | 72 | 1028.0 |
| 20260507014059 | 60 | 51 | 1.7 | 7.8 | 0.00 | 0.34 | 0.34 | 72 | 1028.0 |
| 20260507013559 | 60 | 56 | 0.0 | 7.8 | 0.00 | 0.34 | 0.34 | 72 | 1028.0 |
| 20260507013103 | 60 | 83 | 1.7 | 8.7 | 0.00 | 0.34 | 0.34 | 72 | 1028.0 |
| 20260507012603 | 60 | 62 | 0.9 | 5.2 | 0.00 | 0.34 | 0.34 | 72 | 1028.0 |
| 20260507012124 | 60 | 79 | 0.9 | 7.8 | 0.00 | 0.34 | 0.34 | 72 | 1027.9 |
| 20260507011606 | 60 | 44 | 1.7 | 7.8 | 0.00 | 0.34 | 0.34 | 72 | 1028.0 |
| 20260507011105 | 60 | 36 | 1.7 | 7.8 | 0.00 | 0.34 | 0.34 | 72 | 1028.1 |
| 20260507010606 | 60 | 78 | 0.9 | 7.8 | 0.00 | 0.34 | 0.34 | 72 | 1028.0 |
| 20260507010108 | 60 | 31 | 3.5 | 7.0 | 0.00 | 0.34 | 0.34 | 72 | 1028.1 |
| 20260507005629 | 60 | 43 | 1.7 | 7.0 | 0.00 | 0.34 | 0.34 | 72 | 1028.0 |
| 20260507005110 | 60 | 99 | 1.7 | 7.0 | 0.00 | 0.34 | 0.34 | 72 | 1028.0 |
| 20260507004632 | 60 | 85 | 0.9 | 7.0 | 0.00 | 0.34 | 0.34 | 72 | 1028.1 |
| 20260507004112 | 60 | 63 | 1.7 | 9.6 | 0.01 | 0.34 | 0.34 | 72 | 1028.1 |
| 20260507003613 | 60 | 43 | 1.7 | 9.6 | 0.03 | 0.34 | 0.34 | 72 | 1028.1 |
| 20260507003115 | 60 | 90 | 3.5 | 9.6 | 0.03 | 0.34 | 0.34 | 71 | 1028.0 |
| 20260507002615 | 60 | 79 | 1.7 | 6.1 | 0.04 | 0.34 | 0.34 | 71 | 1027.9 |
| 20260507002116 | 60 | 87 | 1.7 | 6.1 | 0.04 | 0.34 | 0.34 | 71 | 1028.1 |
| 20260507001639 | 60 | 86 | 1.7 | 5.2 | 0.05 | 0.34 | 0.34 | 71 | 1028.0 |
| 20260507001059 | 60 | 66 | 0.9 | 4.3 | 0.05 | 0.34 | 0.34 | 71 | 1027.9 |
| 20260507000104 | 60 | 48 | 2.6 | 7.0 | 0.06 | 0.34 | 0.34 | 71 | 1027.7 |
| 20260506235601 | 60 | 56 | 1.7 | 5.2 | 0.06 | 0.34 | 0.34 | 72 | 1027.7 |
| 20260506235103 | 60 | 32 | 0.9 | 7.8 | 0.06 | 0.34 | 0.34 | 72 | 1027.7 |
| 20260506234606 | 60 | 65 | 0.9 | 10.4 | 0.06 | 0.34 | 0.34 | 72 | 1027.7 |
| 20260506234106 | 60 | 64 | 2.6 | 10.4 | 0.05 | 0.33 | 0.33 | 72 | 1027.9 |
| 20260506233608 | 60 | 39 | 1.7 | 7.0 | 0.03 | 0.31 | 0.31 | 72 | 1027.8 |
| 20260506232617 | 60 | 64 | 3.5 | 9.6 | 0.03 | 0.30 | 0.30 | 72 | 1027.8 |
| 20260506232118 | 60 | 61 | 2.6 | 7.0 | 0.03 | 0.30 | 0.30 | 72 | 1027.9 |
| 20260506231622 | 60 | 58 | 2.6 | 8.7 | 0.03 | 0.29 | 0.29 | 72 | 1028.1 |
| 20260506231100 | 60 | 57 | 1.7 | 10.4 | 0.04 | 0.29 | 0.29 | 72 | 1028.0 |
| 20260506230600 | 60 | 48 | 3.5 | 10.4 | 0.03 | 0.28 | 0.28 | 72 | 1027.9 |
| 20260506225604 | 60 | 41 | 0.9 | 5.2 | 0.04 | 0.28 | 0.28 | 72 | 1028.0 |
| 20260506225105 | 60 | 91 | 1.7 | 4.3 | 0.04 | 0.28 | 0.28 | 72 | 1028.1 |
| 20260506224607 | 60 | 60 | 0.9 | 4.3 | 0.04 | 0.28 | 0.28 | 72 | 1028.0 |
| 20260506224109 | 60 | 10 | 0.9 | 7.0 | 0.04 | 0.28 | 0.28 | 72 | 1028.1 |
| 20260506223610 | 60 | 45 | 1.7 | 10.4 | 0.05 | 0.28 | 0.28 | 73 | 1028.1 |
| 20260506223112 | 60 | 62 | 2.6 | 10.4 | 0.04 | 0.27 | 0.27 | 73 | 1028.2 |
| 20260506222612 | 60 | 50 | 2.6 | 7.8 | 0.05 | 0.27 | 0.27 | 73 | 1028.2 |
| 20260506222115 | 61 | 27 | 2.6 | 7.0 | 0.05 | 0.27 | 0.27 | 73 | 1028.3 |
| 20260506221600 | 61 | 358 | 2.6 | 7.8 | 0.05 | 0.26 | 0.26 | 73 | 1028.4 |
| 20260506221122 | 61 | 40 | 2.6 | 7.8 | 0.04 | 0.25 | 0.25 | 73 | 1028.4 |
| 20260506220601 | 61 | 60 | 2.6 | 9.6 | 0.05 | 0.25 | 0.25 | 73 | 1028.4 |
| 20260506220104 | 61 | 15 | 4.3 | 9.6 | 0.05 | 0.25 | 0.25 | 73 | 1028.4 |
| 20260506215604 | 61 | 8 | 1.7 | 8.7 | 0.05 | 0.24 | 0.24 | 72 | 1028.6 |
| 20260506215106 | 61 | 334 | 2.6 | 9.6 | 0.06 | 0.24 | 0.24 | 73 | 1028.6 |
| 20260506214608 | 61 | 2 | 2.6 | 9.6 | 0.06 | 0.24 | 0.24 | 73 | 1028.6 |
| 20260506214108 | 61 | 7 | 2.6 | 11.3 | 0.07 | 0.24 | 0.24 | 72 | 1028.7 |
| 20260506213609 | 61 | 4 | 2.6 | 11.3 | 0.08 | 0.23 | 0.23 | 72 | 1028.7 |
| 20260506213114 | 61 | 40 | 1.7 | 9.6 | 0.09 | 0.23 | 0.23 | 72 | 1028.7 |
| 20260506212617 | 61 | 36 | 2.6 | 8.7 | 0.09 | 0.22 | 0.22 | 72 | 1028.9 |
| 20260506212118 | 61 | 339 | 0.9 | 5.2 | 0.10 | 0.22 | 0.22 | 72 | 1028.9 |
| 20260506211600 | 61 | 6 | 0.9 | 4.3 | 0.12 | 0.21 | 0.21 | 73 | 1028.9 |
| 20260506211059 | 61 | 356 | 0.9 | 3.5 | 0.13 | 0.21 | 0.21 | 73 | 1029.0 |
| 20260506210601 | 61 | 58 | 0.0 | 2.6 | 0.12 | 0.20 | 0.20 | 73 | 1029.0 |
| 20260506205603 | 61 | 26 | 0.0 | 3.5 | 0.12 | 0.19 | 0.19 | 73 | 1029.1 |
| 20260506205105 | 61 | 24 | 0.9 | 3.5 | 0.11 | 0.18 | 0.18 | 73 | 1029.1 |
| 20260506204608 | 61 | 12 | 0.9 | 6.1 | 0.12 | 0.18 | 0.18 | 73 | 1029.0 |
| 20260506204109 | 61 | 354 | 0.9 | 6.1 | 0.11 | 0.17 | 0.17 | 74 | 1029.0 |
| 20260506203630 | 61 | 352 | 0.9 | 4.3 | 0.10 | 0.15 | 0.15 | 74 | 1029.1 |
| 20260506203111 | 61 | 341 | 0.9 | 4.3 | 0.10 | 0.14 | 0.14 | 74 | 1029.1 |
| 20260506202613 | 61 | 3 | 0.9 | 3.5 | 0.10 | 0.13 | 0.13 | 74 | 1029.1 |
| 20260506202113 | 62 | 345 | 0.0 | 3.5 | 0.09 | 0.12 | 0.12 | 74 | 1029.1 |
| 20260506201614 | 62 | 344 | 0.0 | 3.5 | 0.07 | 0.09 | 0.09 | 74 | 1029.2 |
| 20260506201136 | 62 | 7 | 0.9 | 3.5 | 0.06 | 0.08 | 0.08 | 75 | 1029.0 |
| 20260506200617 | 62 | 38 | 0.0 | 3.5 | 0.07 | 0.08 | 0.08 | 75 | 1028.8 |
| 20260506200059 | 62 | 323 | 0.0 | 3.5 | 0.07 | 0.08 | 0.08 | 75 | 1028.9 |
| 20260506195600 | 63 | 52 | 0.0 | 3.5 | 0.06 | 0.07 | 0.07 | 75 | 1029.0 |
| 20260506195123 | 63 | 343 | 0.0 | 2.6 | 0.06 | 0.07 | 0.07 | 76 | 1029.1 |
| 20260506194644 | 63 | 356 | 0.0 | 2.6 | 0.05 | 0.06 | 0.06 | 76 | 1029.0 |
| 20260506194136 | 63 | 67 | 0.0 | 1.7 | 0.06 | 0.06 | 0.06 | 75 | 1029.0 |
| 20260506193634 | 63 | 327 | 0.0 | 2.6 | 0.05 | 0.05 | 0.05 | 76 | 1029.2 |
| 20260506193136 | 63 | 300 | 0.0 | 2.6 | 0.04 | 0.04 | 0.04 | 76 | 1029.4 |
| 20260506192616 | 64 | 307 | 0.0 | 0.9 | 0.03 | 0.03 | 0.03 | 76 | 1029.4 |
| 20260506192058 | 64 | 307 | 0.0 | 0.9 | 0.03 | 0.03 | 0.03 | 76 | 1029.5 |
| 20260506191602 | 64 | 148 | 0.0 | 1.7 | 0.02 | 0.02 | 0.02 | 76 | 1029.7 |
| 20260506191125 | 64 | 148 | 0.0 | 1.7 | 0.02 | 0.02 | 0.02 | 75 | 1029.5 |
| 20260506190607 | 65 | 147 | 0.0 | 4.3 | 0.01 | 0.01 | 0.01 | 75 | 1029.5 |
| 20260506190111 | 65 | 82 | 0.0 | 5.2 | 0.01 | 0.01 | 0.01 | 74 | 1029.3 |
| 20260506185613 | 65 | 51 | 0.9 | 7.0 | 0.01 | 0.01 | 0.01 | 73 | 1029.3 |
| 20260506185113 | 65 | 61 | 1.7 | 7.0 | 0.01 | 0.01 | 0.01 | 72 | 1029.2 |
| 20260506184614 | 65 | 50 | 3.5 | 8.7 | 0.01 | 0.01 | 0.01 | 71 | 1029.1 |
| 20260506184117 | 66 | 5 | 3.5 | 8.7 | 0.00 | 0.00 | 0.00 | 70 | 1029.0 |
| 20260506183600 | 66 | 26 | 2.6 | 8.7 | 0.00 | 0.00 | 0.00 | 70 | 1029.0 |
| 20260506183102 | 66 | 52 | 0.9 | 7.0 | 0.00 | 0.00 | 0.00 | 70 | 1029.1 |
| 20260506181601 | 68 | 41 | 2.6 | 11.3 | 0.00 | 0.00 | 0.00 | 66 | 1029.2 |
| 20260506181102 | 68 | 67 | 4.3 | 11.3 | 0.00 | 0.00 | 0.00 | 65 | 1029.2 |
| 20260506180605 | 68 | 32 | 4.3 | 10.4 | 0.00 | 0.00 | 0.00 | 64 | 1029.3 |
| 20260506180109 | 68 | 29 | 2.6 | 13.0 | 0.00 | 0.00 | 0.00 | 64 | 1029.2 |
| 20260506175609 | 69 | 356 | 5.2 | 12.2 | 0.00 | 0.00 | 0.00 | 64 | 1029.3 |
| 20260506175110 | 69 | 75 | 4.3 | 13.9 | 0.00 | 0.00 | 0.00 | 63 | 1029.3 |
| 20260506174614 | 69 | 5 | 3.5 | 13.9 | 0.00 | 0.00 | 0.00 | 63 | 1029.3 |
| 20260506174134 | 70 | 64 | 4.3 | 12.2 | 0.00 | 0.00 | 0.00 | 62 | 1029.4 |
| 20260506173633 | 70 | 57 | 5.2 | 12.2 | 0.00 | 0.00 | 0.00 | 62 | 1029.4 |
| 20260506173114 | 70 | 332 | 2.6 | 10.4 | 0.00 | 0.00 | 0.00 | 64 | 1029.4 |
| 20260506172613 | 69 | 55 | 2.6 | 12.2 | 0.00 | 0.00 | 0.00 | 63 | 1029.5 |
| 20260506172115 | 69 | 76 | 6.1 | 12.2 | 0.00 | 0.00 | 0.00 | 63 | 1029.5 |
| 20260506171638 | 69 | 34 | 5.2 | 12.2 | 0.00 | 0.00 | 0.00 | 63 | 1029.6 |
| 20260506171118 | 69 | 44 | 4.3 | 11.3 | 0.00 | 0.00 | 0.00 | 64 | 1029.7 |
| 20260506170601 | 69 | 353 | 5.2 | 10.4 | 0.00 | 0.00 | 0.00 | 63 | 1029.7 |
| 20260506165602 | 70 | 40 | 2.6 | 7.8 | 0.00 | 0.00 | 0.00 | 63 | 1029.8 |
| 20260506165122 | 70 | 5 | 1.7 | 6.1 | 0.00 | 0.00 | 0.00 | 63 | 1029.8 |
| 20260506164605 | 70 | 58 | 0.9 | 6.1 | 0.00 | 0.00 | 0.00 | 63 | 1029.9 |
| 20260506164125 | 70 | 5 | 1.7 | 7.0 | 0.00 | 0.00 | 0.00 | 63 | 1030.0 |
| 20260506163605 | 70 | 43 | 3.5 | 7.0 | 0.00 | 0.00 | 0.00 | 62 | 1030.1 |
| 20260506163109 | 70 | 64 | 0.9 | 6.1 | 0.00 | 0.00 | 0.00 | 62 | 1030.2 |
| 20260506162611 | 71 | 6 | 1.7 | 11.3 | 0.00 | 0.00 | 0.00 | 61 | 1030.3 |
| 20260506162134 | 72 | 41 | 4.3 | 11.3 | 0.00 | 0.00 | 0.00 | 60 | 1030.3 |
| 20260506161616 | 72 | 341 | 1.7 | 7.8 | 0.00 | 0.00 | 0.00 | 60 | 1030.5 |
| 20260506161115 | 71 | 41 | 3.5 | 11.3 | 0.00 | 0.00 | 0.00 | 60 | 1030.6 |
| 20260506160559 | 71 | 342 | 6.1 | 13.9 | 0.00 | 0.00 | 0.00 | 60 | 1030.8 |
| 20260506155601 | 71 | 53 | 6.1 | 14.8 | 0.00 | 0.00 | 0.00 | 60 | 1030.8 |
| 20260506155122 | 71 | 346 | 1.7 | 12.2 | 0.00 | 0.00 | 0.00 | 61 | 1030.9 |
| 20260506154624 | 71 | 86 | 3.5 | 12.2 | 0.00 | 0.00 | 0.00 | 61 | 1031.1 |
| 20260506154124 | 71 | 41 | 4.3 | 12.2 | 0.00 | 0.00 | 0.00 | 60 | 1031.2 |
| 20260506153605 | 71 | 13 | 4.3 | 13.0 | 0.00 | 0.00 | 0.00 | 60 | 1031.1 |
| 20260506153110 | 71 | 72 | 7.0 | 13.0 | 0.00 | 0.00 | 0.00 | 61 | 1031.3 |
| 20260506152613 | 71 | 332 | 5.2 | 10.4 | 0.00 | 0.00 | 0.00 | 62 | 1031.3 |
| 20260506152115 | 71 | 358 | 4.3 | 11.3 | 0.00 | 0.00 | 0.00 | 62 | 1031.2 |
| 20260506151636 | 71 | 64 | 4.3 | 11.3 | 0.00 | 0.00 | 0.00 | 62 | 1031.1 |
| 20260506151115 | 71 | 69 | 4.3 | 11.3 | 0.00 | 0.00 | 0.00 | 62 | 1031.4 |
| 20260506150617 | 70 | 2 | 1.7 | 11.3 | 0.00 | 0.00 | 0.00 | 62 | 1031.4 |
| 20260506150100 | 70 | 350 | 2.6 | 12.2 | 0.00 | 0.00 | 0.00 | 63 | 1031.4 |
| 20260506145559 | 70 | 60 | 6.1 | 13.9 | 0.00 | 0.00 | 0.00 | 63 | 1031.3 |
| 20260506145101 | 70 | 53 | 7.0 | 13.9 | 0.00 | 0.00 | 0.00 | 63 | 1031.3 |
| 20260506144604 | 70 | 59 | 7.0 | 11.3 | 0.00 | 0.00 | 0.00 | 63 | 1031.2 |
| 20260506144107 | 70 | 62 | 2.6 | 9.6 | 0.00 | 0.00 | 0.00 | 64 | 1031.3 |
| 20260506143609 | 70 | 78 | 4.3 | 11.3 | 0.00 | 0.00 | 0.00 | 64 | 1031.3 |
| 20260506143114 | 69 | 54 | 5.2 | 11.3 | 0.00 | 0.00 | 0.00 | 65 | 1031.2 |
| 20260506142634 | 69 | 69 | 5.2 | 11.3 | 0.00 | 0.00 | 0.00 | 65 | 1031.1 |
| 20260506142113 | 69 | 24 | 5.2 | 13.0 | 0.00 | 0.00 | 0.00 | 65 | 1031.1 |
| 20260506141637 | 68 | 341 | 6.1 | 13.0 | 0.00 | 0.00 | 0.00 | 66 | 1031.2 |
| 20260506140605 | 68 | 71 | 3.5 | 12.2 | 0.00 | 0.00 | 0.00 | 67 | 1031.2 |
| 20260506140109 | 67 | 18 | 4.3 | 13.9 | 0.00 | 0.00 | 0.00 | 67 | 1031.3 |
| 20260506135608 | 67 | 48 | 6.1 | 12.2 | 0.00 | 0.00 | 0.00 | 67 | 1031.3 |
| 20260506135110 | 67 | 18 | 4.3 | 13.0 | 0.00 | 0.00 | 0.00 | 68 | 1031.4 |
| 20260506134614 | 67 | 50 | 7.0 | 13.0 | 0.00 | 0.00 | 0.00 | 67 | 1031.5 |
| 20260506134134 | 67 | 90 | 2.6 | 11.3 | 0.00 | 0.00 | 0.00 | 68 | 1031.7 |
| 20260506133617 | 66 | 46 | 5.2 | 12.2 | 0.00 | 0.00 | 0.00 | 68 | 1031.7 |
| 20260506133100 | 66 | 45 | 4.3 | 11.3 | 0.00 | 0.00 | 0.00 | 68 | 1031.7 |
| 20260506132601 | 66 | 59 | 0.9 | 11.3 | 0.00 | 0.00 | 0.00 | 68 | 1031.7 |
| 20260506132102 | 66 | 83 | 3.5 | 9.6 | 0.00 | 0.00 | 0.00 | 68 | 1031.4 |
| 20260506131605 | 66 | 52 | 0.9 | 9.6 | 0.00 | 0.00 | 0.00 | 68 | 1031.5 |
| 20260506131106 | 66 | 75 | 4.3 | 8.7 | 0.00 | 0.00 | 0.00 | 68 | 1031.7 |
| 20260506130607 | 66 | 35 | 3.5 | 7.8 | 0.00 | 0.00 | 0.00 | 68 | 1031.7 |
| 20260506130109 | 66 | 32 | 2.6 | 9.6 | 0.00 | 0.00 | 0.00 | 68 | 1031.8 |
| 20260506125607 | 66 | 74 | 4.3 | 9.6 | 0.00 | 0.00 | 0.00 | 68 | 1031.6 |
| 20260506125108 | 66 | 13 | 3.5 | 10.4 | 0.00 | 0.00 | 0.00 | 69 | 1031.4 |
| 20260506124611 | 66 | 357 | 6.1 | 12.2 | 0.00 | 0.00 | 0.00 | 69 | 1031.5 |
| 20260506124112 | 66 | 3 | 5.2 | 12.2 | 0.00 | 0.00 | 0.00 | 69 | 1031.6 |
| 20260506123611 | 66 | 3 | 3.5 | 10.4 | 0.00 | 0.00 | 0.00 | 69 | 1031.8 |
| 20260506123114 | 65 | 88 | 1.7 | 11.3 | 0.00 | 0.00 | 0.00 | 70 | 1031.9 |
| 20260506122612 | 65 | 58 | 3.5 | 11.3 | 0.00 | 0.00 | 0.00 | 70 | 1031.9 |
| 20260506122113 | 65 | 64 | 2.6 | 10.4 | 0.00 | 0.00 | 0.00 | 70 | 1031.7 |
| 20260506121615 | 64 | 8 | 4.3 | 10.4 | 0.00 | 0.00 | 0.00 | 70 | 1031.7 |
| 20260506121115 | 64 | 30 | 1.7 | 7.8 | 0.00 | 0.00 | 0.00 | 70 | 1031.8 |
| 20260506120616 | 64 | 55 | 1.7 | 8.7 | 0.00 | 0.00 | 0.00 | 70 | 1032.0 |
| 20260506120059 | 64 | 51 | 4.3 | 8.7 | 0.00 | 0.00 | 0.00 | 70 | 1032.0 |
| 20260506115600 | 64 | 29 | 3.5 | 7.8 | 0.00 | 0.00 | 0.00 | 70 | 1032.0 |
| 20260506115101 | 64 | 85 | 3.5 | 9.6 | 0.00 | 0.00 | 0.00 | 70 | 1032.0 |
| 20260506114625 | 64 | 67 | 1.7 | 9.6 | 0.00 | 0.00 | 0.00 | 70 | 1032.1 |
| 20260506114104 | 64 | 26 | 4.3 | 7.8 | 0.00 | 0.00 | 0.00 | 70 | 1032.1 |
| 20260506113605 | 64 | 71 | 0.9 | 7.0 | 0.00 | 0.00 | 0.00 | 70 | 1032.1 |
| 20260506113108 | 64 | 78 | 1.7 | 7.0 | 0.00 | 0.00 | 0.00 | 71 | 1032.2 |
| 20260506112607 | 64 | 56 | 0.9 | 7.8 | 0.00 | 0.00 | 0.00 | 71 | 1032.1 |
| 20260506112109 | 64 | 21 | 3.5 | 7.8 | 0.00 | 0.00 | 0.00 | 70 | 1032.0 |
| 20260506111603 | 63 | 19 | 0.9 | 7.8 | 0.00 | 0.00 | 0.00 | 71 | 1031.9 |
| 20260506111103 | 63 | 52 | 2.6 | 7.0 | 0.00 | 0.00 | 0.00 | 71 | 1032.0 |
| 20260506110626 | 63 | 34 | 1.7 | 4.3 | 0.00 | 0.00 | 0.00 | 71 | 1032.2 |
| 20260506110107 | 63 | 83 | 1.7 | 7.0 | 0.00 | 0.00 | 0.00 | 71 | 1032.3 |
| 20260506105607 | 63 | 44 | 4.3 | 9.6 | 0.00 | 0.00 | 0.00 | 71 | 1032.2 |
| 20260506105129 | 63 | 41 | 2.6 | 9.6 | 0.00 | 0.00 | 0.00 | 71 | 1032.1 |
| 20260506104610 | 63 | 327 | 1.7 | 7.0 | 0.00 | 0.00 | 0.00 | 71 | 1032.1 |
| 20260506104110 | 63 | 346 | 2.6 | 7.0 | 0.00 | 0.00 | 0.00 | 71 | 1032.1 |
| 20260506103631 | 63 | 59 | 1.7 | 9.6 | 0.00 | 0.00 | 0.00 | 71 | 1032.2 |
| 20260506103112 | 63 | 6 | 5.2 | 9.6 | 0.00 | 0.00 | 0.00 | 71 | 1032.1 |
| 20260506102612 | 63 | 18 | 2.6 | 8.7 | 0.00 | 0.00 | 0.00 | 71 | 1032.0 |
| 20260506102111 | 63 | 17 | 3.5 | 8.7 | 0.00 | 0.00 | 0.00 | 71 | 1032.1 |
| 20260506101612 | 62 | 60 | 2.6 | 5.2 | 0.00 | 0.00 | 0.00 | 71 | 1032.3 |
| 20260506101114 | 62 | 55 | 0.0 | 8.7 | 0.00 | 0.00 | 0.00 | 71 | 1032.2 |
| 20260506100616 | 62 | 56 | 2.6 | 8.7 | 0.00 | 0.00 | 0.00 | 71 | 1032.0 |
| 20260506100059 | 62 | 59 | 2.6 | 7.0 | 0.00 | 0.00 | 0.00 | 71 | 1032.1 |
| 20260506095619 | 62 | 67 | 2.6 | 10.4 | 0.00 | 0.00 | 0.00 | 71 | 1032.0 |
| 20260506095102 | 62 | 109 | 6.1 | 10.4 | 0.00 | 0.00 | 0.00 | 71 | 1032.0 |
| 20260506094605 | 62 | 34 | 3.5 | 9.6 | 0.00 | 0.00 | 0.00 | 71 | 1032.1 |
| 20260506094104 | 62 | 50 | 2.6 | 6.1 | 0.00 | 0.00 | 0.00 | 70 | 1032.2 |
| 20260506093605 | 62 | 26 | 3.5 | 8.7 | 0.00 | 0.00 | 0.00 | 70 | 1032.2 |
| 20260506093129 | 62 | 60 | 3.5 | 8.7 | 0.00 | 0.00 | 0.00 | 70 | 1032.1 |
| 20260506092607 | 63 | 6 | 0.9 | 7.8 | 0.00 | 0.00 | 0.00 | 70 | 1032.1 |
| 20260506092109 | 63 | 47 | 2.6 | 7.8 | 0.00 | 0.00 | 0.00 | 70 | 1032.1 |
| 20260506091613 | 63 | 44 | 2.6 | 9.6 | 0.00 | 0.00 | 0.00 | 70 | 1032.1 |
| 20260506091112 | 63 | 48 | 2.6 | 9.6 | 0.00 | 0.00 | 0.00 | 69 | 1031.9 |
| 20260506090628 | 63 | 48 | 2.6 | 8.7 | 0.00 | 0.00 | 0.00 | 69 | 1031.9 |
| 20260506090130 | 63 | 43 | 1.7 | 7.0 | 0.00 | 0.00 | 0.00 | 69 | 1031.9 |
| 20260506085609 | 63 | 157 | 4.3 | 8.7 | 0.00 | 0.00 | 0.00 | 69 | 1031.9 |
| 20260506085111 | 63 | 25 | 3.5 | 8.7 | 0.00 | 0.00 | 0.00 | 69 | 1031.9 |
| 20260506084614 | 63 | 110 | 0.9 | 9.6 | 0.00 | 0.00 | 0.00 | 69 | 1031.9 |
| 20260506084116 | 63 | 57 | 1.7 | 9.6 | 0.00 | 0.00 | 0.00 | 69 | 1031.9 |
| 20260506083617 | 63 | 43 | 0.9 | 6.1 | 0.00 | 0.00 | 0.00 | 68 | 1031.9 |
| 20260506083101 | 63 | 62 | 1.7 | 6.1 | 0.00 | 0.00 | 0.00 | 68 | 1031.9 |
| 20260506082602 | 63 | 67 | 0.9 | 9.6 | 0.00 | 0.00 | 0.00 | 68 | 1031.8 |
| 20260506082104 | 64 | 68 | 3.5 | 9.6 | 0.00 | 0.00 | 0.00 | 67 | 1031.9 |